Погода в Киеве

Погода в Киеве : погода сейчас, прогноз погоды и архив. Всё, что Вы хотите узнать о погоде в Киеве!

Хотите узнать прогноз погоды в Киеве? Тогда Вам сюда: Погода в Киеве

Поиск расширенной информации на нашем сайте:

Другие новости

Новости СМИ2

Главная страница сайта

Новости сайта

03.07.2017

Напоминаем, что на нашем специализированном сайте Метеоцентр.Азия вы можете получить высокодетализированные автоматические прогнозы погоды по пунктам России, СНГ и мира в авиационном формате (включающие направление и скорость ветра, видимость, явления погоды, количество и форму облачности, нижнюю и верхнюю границу облачности).

Рекомендуем: ремонт квартир цены

Погода в Киеве - сегодня

Время (UTC), дата Ветер
(°,м/с) 
Видим.   Явления Облачность Т
(°С)
Тd
(°С)
f(%) Тe
(°С)
Pmin
(гПа)
dP
(гПа)
Po
(мм)
O2
(г/м3)
Тmin Tmax R s Состояние
почвы
21 16.04.18 180 (Ю) 20000 м    8/0 верхняя 
[Cs]
+14.6 +4.5 51 +14  1018.2  749  286           
00 17.04.18 200 (Ю) 20000 м    9/0 средняя 
[As trans]
+11.4 +2.1 53 +11  1018.6  0.1  749  289           
03 17.04.18 200 (Ю) 20000 м    10/0 средняя 
[As op]
+9.8 +1.1 55 +10  1018.3  -0.4  749  291           
06 17.04.18 230 (ЮЗ) 20000 м    9/5 600 м кучево-дожд., средняя 
[Cb cap|As trans]
+9.8 +2.8 62 +10  1019.1  0.8  749  291  +9.3         
09 17.04.18 200 (Ю) 20000 м    9/0 средняя 
[Ac As]
+15.2 +3.4 45 +15  1018.4  -0.3  749  285           
12 17.04.18 200 (Ю) 20000 м    9/0 средняя 
[Ac As]
+18.2 +3.2 37 +19  1017.8  -0.4  749  282           
15 17.04.18 220 (ЮЗ) 20000 м    9/0 средняя, верхняя 
[Ac trans|Cs]
+20.1 +5.9 39 +20  1016.9  -0.7  748  280           
18 17.04.18 230 (ЮЗ) 20000 м    9/0 средняя 
[Ac trans]
+17.8 +6.3 47 +18  1017.6  0.5  748  282    +20.5       
21 17.04.18 260 (З) 20000 м    8/0 средняя 
[Ac trans]
+16.2 +6.7 53 +17  1017.7  748  284           
00 18.04.18 280 (З) 20000 м    8/0 средняя 
[Ac lent]
+15.6 +10.7 73 +18  1018.1  0.4  749  283           
03 18.04.18 330 (СЗ) 20000 м    10/10 1200 м 
[Sc]
+14 +11.4 84 +16  1019.5  1.2  750  285           
06 18.04.18 330 (СЗ) 20000 м    ясно 
+11.9 +2.7 53 +11  1022.4  2.7  752  290  +11.5         
09 18.04.18 320 (СЗ) 20000 м    ясно 
+15.8 +2.1 40 +16  1021.9  -0.2  752  286           
12 18.04.18 340 (С) 20000 м    6/6 600 м 
[Cu med, cong]
+18.3 +2 34 +18  1020.4  -1.3  751  283           
15 18.04.18 320 (СЗ) 20000 м    8/6 1000 м средняя 
[Sc diur, vesp|Ac cuf]
+16.8 +3.7 42 +17  1019.6  -0.9  750  284           
18 18.04.18 340 (С) 20000 м    5/4 600 м средняя 
[Sc|Ac cuf]
+15.3 +2.9 43 +15  1020.4  0.7  750  286    +18.9       
21 18.04.18 310 (СЗ) 20000 м    9/0 средняя 
[Ac trans]
+13.4 +3.1 50 +13  1019.8  -0.8  750  288           
00 19.04.18 310 (СЗ) 20000 м    8/0 средняя 
[Ac trans]
+11.7 +4.7 62 +11  1018.1  -1.7  749  288           
03 19.04.18 310 (СЗ) 20000 м    9/0 средняя 
[Ac lent]
+11.3 +5.7 68 +10  1016.2  -1.9  747  288           
06 19.04.18 320 (СЗ) 20000 м    6/6 600 м 
[Cu hum]
+12.6 +5.3 61 +12  1014.6  -1.5  746  286  +11.3         
09 19.04.18 320 (СЗ) 20000 м    6/6 600 м 
[Sc]
+14.5 +4.1 50 +14  1013.9  -0.6  746  285           
15 19.04.18 340 (С) 20000 м    9/9 600 м 
[Sc]
+13.1 +3.6 52 +12  1013  -0.6  745  286           
18 19.04.18 360 (С) 8-19{19}  20000 м    4/4 600 м 
[Sc]
+12.3 +3.6 55 +11  1013.9  0.8  745  287    +15.4       
21 19.04.18 360 (С) 20000 м    5/5 600 м 
[Sc]
+10.3 +4.5 67 +9  1015.7  1.6  747  289           
00 20.04.18 350 (С) 20000 м    4/4 600 м 
[Sc]
+9.2 +4.2 71 +7  1016.7  0.9  747  291           
Время (UTC), дата Ветер
(°,м/с) 
Видим.   Явления Облачность Т
(°С)
Тd
(°С)
f(%) Тe
(°С)
Pmin
(гПа)
dP
(гПа)
Po
(мм)
O2
(г/м3)
Тmin Tmax R s Состояние
почвы

Для получения пояснительной информации подведите курсор к названию столбца.

ПОГОДА в Киеве - архив

Всё, что Вы хотите узнать о погоде в Киеве - удобно и подробно!

Выберите нужную дату (начиная с 1 января 2015* года) и нажмите кнопку "Найти".
Будут отображены архивные сводки погоды по пункту Киев, начиная с указанной даты.


Отображать данные в формате CSV (для использования в таблицах Excel)


Внимание! Наш архив погоды предназначен исключительно для личного некоммерческого использования в познавательных целях. Если Вам необходимы официальные справки о состоянии погоды (для производственных, юридических, коммерческих и т.п. целей), обращайтесь в органы Росгидромета.

*Примечание: данная дата относится к архиву по метеостанциям СССР (Россия, СНГ, Балтия).
Архив по метеостанциям Зарубежной Европы и Азии (кроме Китая) хранится 10 дней, по другим регионам земного шара (Китай, Африка, Америка, Австралия, Океания) - 1 день.

Киев - район местоположения метеостанции


Название, широта, долгота, высота метеостанции:
Киев (город) 50.4°ш. 30.6°д. 167 м над ур. моря [Украина]

Дополнительная информация

В oтличие oт бoльшинства пoгoдных сайтoв мы публикуем пoдрoбную метеoинфoрмацию в детальнoм прoфессиoнальнoм фoрмате.

Характеристики температуры и влажнoсти вoздуха измеряются на высoте 2 м в тени вдали oт зданий и деревьев.
Скoрoсть ветра измеряется на высoте 10 м (на урoвне рoста челoвека скoрoсть ветра ниже в 1.5-2 раза). Если метеoстанция нахoдится в гoрoде или в лесу, тo скoрoсть ветра занижена на 2-4 м/с пo сравнению с oткрытым местoм. Скoрoсть ветра над акватoриями крупных рек и oзёр, а также на вершинах хoлмoв на 2-5 м/с выше, чем в oбычных услoвиях.
Атмoсфернoе давление в разных тoчках местнoсти мoжет значительнo oтличаться oт давления на метеoстанции, в зависимoсти oт услoвий рельефа (при пoдъёме на 10 м давление пoнижается примернo на 1 мм рт.ст.).